FW7930 Weather Reports


Display with metric or nautical units.
time (UTC)temp
F
wind
direction
speed
MPH
gust
MPH
rain 1hr
in
rain 24hr
in
rain mn
in
humidity
%
barometer
mb
20260510044530 51 360 0.0 0.0 0.00 0.00 0.00 89 1010.0
20260510043032 51 360 0.0 0.0 0.00 0.00 0.00 89 1010.0
20260510041520 52 360 0.0 0.0 0.00 0.00 0.00 88 1010.0
20260510040021 52 360 0.0 0.0 0.00 0.00 0.00 87 1009.9
20260510033018 52 360 0.0 0.0 0.00 0.00 0.00 86 1010.0
20260510031515 53 360 0.0 0.0 0.00 0.00 0.00 84 1010.0
20260510030014 53 360 0.0 0.0 0.00 0.00 0.00 84 1010.0
20260510024514 54 360 0.0 0.0 0.00 0.00 0.00 83 1009.9
20260510023013 54 360 0.0 0.0 0.00 0.00 0.00 83 1009.8
20260510021542 55 360 0.0 0.0 0.00 0.00 0.00 82 1009.7
20260510020041 55 360 0.0 0.0 0.00 0.00 0.00 81 1009.6
20260510014539 56 360 0.0 0.0 0.00 0.00 0.00 82 1009.5
20260510013042 57 360 0.0 0.0 0.00 0.00 0.00 79 1009.3
20260510011538 57 360 0.0 0.0 0.00 0.00 0.00 78 1009.0
20260510010035 58 360 0.0 0.0 0.00 0.00 0.00 76 1008.8
20260510004532 59 360 0.0 0.0 0.00 0.00 0.00 75 1008.6
20260510003044 60 360 0.0 0.0 0.00 0.00 0.00 74 1008.4
20260510001531 61 360 0.0 0.0 0.00 0.00 0.00 72 1008.4
20260510000031 62 360 0.0 0.0 0.00 0.00 0.00 70 1008.5
20260509234628 63 24 0.0 0.0 0.00 0.00 0.00 70 1008.4
20260509233100 64 25 0.0 2.0 0.00 0.00 0.00 69 1008.3
20260509233007 64 25 0.0 2.0 0.00 0.00 0.00 69 1008.3
20260509231612 64 24 0.0 0.0 0.00 0.00 0.00 67 1008.3
20260509230106 65 24 0.0 3.0 0.00 0.00 0.00 67 1008.2
20260509224557 66 29 1.0 4.0 0.00 0.00 0.00 65 1008.1
20260509223057 66 38 1.0 5.0 0.00 0.00 0.00 63 1008.1
20260509221557 67 43 0.0 3.0 0.00 0.00 0.00 63 1008.0
20260509220052 67 32 0.0 4.0 0.00 0.00 0.00 65 1008.1
20260509214551 67 41 0.0 4.0 0.00 0.00 0.00 66 1008.3
20260509213051 66 59 0.0 0.0 0.00 0.00 0.00 65 1008.2
20260509211552 66 30 1.0 4.0 0.00 0.00 0.00 64 1008.3
20260509210104 66 24 0.0 0.0 0.00 0.00 0.00 64 1008.4
20260509204547 66 24 1.0 4.0 0.00 0.00 0.00 61 1008.2
20260509203147 67 26 2.0 5.0 0.00 0.00 0.00 60 1008.3
20260509201554 65 134 0.0 1.0 0.00 0.00 0.00 67 1008.3
20260509200049 65 147 0.0 3.0 0.00 0.00 0.00 64 1008.4
20260509194541 64 152 0.0 6.0 0.00 0.00 0.00 65 1008.6
20260509193045 64 165 0.0 6.0 0.00 0.00 0.00 63 1008.7
20260509191540 64 174 0.0 6.0 0.00 0.00 0.00 63 1008.8
20260509190037 65 150 0.0 4.0 0.00 0.00 0.00 64 1008.9
20260509184541 65 161 1.0 4.0 0.00 0.00 0.00 63 1009.0
20260509183035 63 33 0.0 3.0 0.00 0.00 0.00 69 1009.1
20260509181525 62 22 0.0 2.0 0.00 0.00 0.00 67 1009.8
20260509180023 61 16 2.0 4.0 0.00 0.00 0.00 67 1010.0
20260509174521 61 24 0.0 0.0 0.00 0.00 0.00 64 1010.4
20260509173026 61 29 0.0 3.0 0.00 0.00 0.00 62 1010.4
20260509171525 61 28 0.0 3.0 0.00 0.00 0.00 64 1010.3
20260509170018 61 36 0.0 3.0 0.00 0.00 0.00 61 1010.4
20260509164516 61 37 1.0 6.0 0.00 0.00 0.00 61 1010.4
20260509163024 61 20 0.0 5.0 0.00 0.00 0.00 66 1010.5
20260509161518 61 31 1.0 4.0 0.00 0.00 0.00 63 1010.6
20260509160012 61 36 1.0 3.0 0.00 0.00 0.00 62 1010.6
20260509154509 60 36 0.0 5.0 0.00 0.00 0.00 66 1010.6
20260509153016 60 23 0.0 6.0 0.00 0.00 0.00 70 1010.6
20260509151501 58 83 0.0 4.0 0.00 0.00 0.00 73 1010.8
20260509150111 57 138 0.0 2.0 0.00 0.00 0.00 73 1011.1
20260509144602 57 140 0.0 0.0 0.00 0.00 0.00 73 1010.9
20260509143105 57 140 0.0 0.0 0.00 0.00 0.00 70 1011.2
20260509140058 56 140 0.0 1.0 0.00 0.00 0.00 67 1010.8
20260509134550 56 143 0.0 0.0 0.00 0.00 0.00 69 1010.8
20260509133050 56 142 0.0 1.0 0.00 0.00 0.00 67 1010.5
20260509131541 56 142 0.0 1.0 0.00 0.00 0.00 67 1010.6
20260509130038 56 142 0.0 3.0 0.00 0.00 0.00 67 1010.7
20260509124540 56 149 1.0 5.0 0.00 0.00 0.00 69 1010.8
20260509123033 55 154 0.0 1.0 0.00 0.00 0.00 69 1010.7
20260509121538 54 154 0.0 0.0 0.00 0.00 0.00 72 1010.9
20260509120024 54 154 0.0 0.0 0.00 0.00 0.00 75 1010.9
20260509114545 54 154 0.0 1.0 0.00 0.00 0.00 76 1010.8
20260509113020 54 154 0.0 0.0 0.00 0.00 0.00 75 1010.6
20260509111517 53 154 0.0 1.0 0.00 0.00 0.00 71 1010.4
20260509110045 53 154 0.0 0.0 0.00 0.00 0.00 69 1010.1
20260509104542 53 154 0.0 0.0 0.00 0.00 0.00 67 1010.0
20260509103036 53 154 0.0 1.0 0.00 0.00 0.00 67 1010.0
20260509101534 53 153 0.0 1.0 0.00 0.00 0.00 68 1010.1
20260509100028 53 153 0.0 2.0 0.00 0.00 0.00 68 1009.9
20260509094526 53 155 0.0 1.0 0.00 0.00 0.00 69 1010.0
20260509093022 52 163 0.0 2.0 0.00 0.00 0.00 70 1010.1
20260509091519 52 168 0.0 2.0 0.00 0.00 0.00 71 1010.2
20260509090041 52 173 0.0 1.0 0.00 0.00 0.00 72 1010.1
20260509084511 51 176 0.0 2.0 0.00 0.00 0.00 72 1010.4
20260509083023 51 169 0.0 2.0 0.00 0.00 0.00 73 1010.4
20260509081508 51 175 0.0 2.0 0.00 0.00 0.00 73 1010.4
20260509080011 51 176 0.0 0.0 0.00 0.00 0.00 73 1010.6
20260509074518 51 176 0.0 2.0 0.00 0.00 0.00 74 1010.6
20260509073001 51 176 0.0 1.0 0.00 0.00 0.00 74 1010.6
20260509071602 51 176 0.0 0.0 0.00 0.00 0.00 74 1010.6
20260509070101 51 176 0.0 0.0 0.00 0.00 0.00 74 1010.7
20260509064557 50 176 0.0 0.0 0.00 0.00 0.00 74 1010.8
20260509063106 50 176 0.0 0.0 0.00 0.00 0.00 75 1010.9
20260509061553 50 176 0.0 3.0 0.00 0.00 0.00 77 1010.9
20260509060052 49 307 0.0 0.0 0.00 0.00 0.00 78 1011.0
20260509054545 48 307 0.0 0.0 0.00 0.00 0.00 77 1011.2
20260509053046 48 307 0.0 0.0 0.00 0.00 0.00 75 1011.3
20260509051544 49 307 0.0 0.0 0.00 0.00 0.00 73 1011.4
20260509050050 49 307 0.0 0.0 0.00 0.00 0.00 71 1011.5